Regional Weather Roundup
Issued by NWS Upton, NY

Current Version | Previous Version | Graphics & Text | Print | Product List | Glossary Off
Versions: 1 2 3 4 5 6 7 8 9 10 11 12 13 14 15 16 17 18 19 20 21 22 23 24 25 26 27 28 29 30 31 32 33 34 35 36 37 38 39 40 41 42 43 44 45 46 47 48 49 50

000
ASUS41 KOKX 040104
RWROKX

REGIONAL WEATHER ROUNDUP
NATIONAL WEATHER SERVICE NEW YORK NY
900 PM EDT MON AUG 03 2015

NOTE: "FAIR" INDICATES FEW OR NO CLOUDS BELOW 12,000 FEET WITH NO
SIGNIFICANT WEATHER AND/OR OBSTRUCTIONS TO VISIBILITY.

NYZ071-072-176-178-NJZ106-104-040200-
NEW YORK CITY METRO AREA


CITY           SKY/WX    TMP DP  RH WIND       PRES   REMARKS
CENTRAL PARK   PTCLDY    85  57  38 SW3       29.81R
LAGUARDIA APRT PTCLDY    87  58  37 SW10      29.78R
KENNEDY INTL   MOCLDY    79  72  79 S16       29.80S
NEWARK/LIBERTY MOCLDY    86  58  38 SW13G21   29.78R
BRNX BOT. GARD   N/A     86  57  37 SW5       29.80R
TETERBORO      PTCLDY    86  54  33 W7        29.77R
$$

NYZ177-179-078>081-040200-
LONG ISLAND NEW YORK

CITY           SKY/WX    TMP DP  RH WIND       PRES   REMARKS
FARMINGDALE    PTCLDY    79  72  79 SW14      29.80S
ISLIP          PTCLDY    78  73  84 S15       29.79S
SHIRLEY        PTCLDY    78  74  87 S9        29.82S
WESTHAMPTON    CLEAR     77  74  90 S10       29.83S
MONTAUK POINT    N/A     77  72  84 S8        29.83S
$$

NYZ052-065-067-040200-
HUDSON VALLEY

CITY           SKY/WX    TMP DP  RH WIND       PRES   REMARKS
WHITE PLAINS   PTCLDY    77  68  73 S3        29.79R
NEWBURGH       PTCLDY    79  63  57 SW6       29.79R
MONTGOMERY     CLEAR     74  67  78 SW6       29.78R
POUGHKEEPSIE   PTCLDY    76  64  66 CALM      29.76R
ALBANY         MOCLDY    72  67  84 VRB3      29.76R THUNDER
$$

NJZ001-105-106-008-010-013-015-019>022-104-040200-
NEW JERSEY

CITY           SKY/WX    TMP DP  RH WIND       PRES   REMARKS
NEWARK/LIBERTY MOCLDY    86  58  38 SW13G21   29.78R
TETERBORO      PTCLDY    86  54  33 W7        29.77R
CALDWELL       PTCLDY    83  57  41 CALM      29.79R
MORRISTOWN     PTCLDY    82  59  44 SW6       29.80R
SOMERVILLE     MOCLDY    77  62  59 CALM      29.78R
SUSSEX         CLEAR     74  65  73 CALM      29.80R
ANDOVER          N/A     75  63  66 CALM      29.81R
TRENTON        PTCLDY    81  59  47 S5        29.80R
MILLVILLE      CLEAR     81  70  69 SW3       29.83R
ATLANTIC CITY  CLEAR     80  72  76 S8        29.84R
WRIGHTSTOWN    CLEAR     78  64  61 SW8       29.79R
TOMS RIVER       N/A     79  72  78 S5        29.82S
BELMAR         PTCLDY    81  66  61 SW8       29.81S
$$

PAZ047>061-062-071-040200-
EASTERN PENNSYLVANIA

CITY           SKY/WX    TMP DP  RH WIND       PRES   REMARKS
PHILADELPHIA   PTCLDY    85  65  51 S9        29.81R
ALLENTOWN      CLEAR     72  67  84 CALM      29.80S
SCRANTON       PTCLDY    79  61  53 SW5       29.81R
$$

CTZ002-004>006-009-010-012-RIZ004-006-007-MAZ004-011-015-040200-
SOUTHERN NEW ENGLAND
 IN CT

CITY           SKY/WX    TMP DP  RH WIND       PRES   REMARKS
BRADLEY INTL   MOCLDY    80  65  59 S10G18    29.77R
HARTFORD       PTCLDY    80  68  66 S12       29.78R
DANBURY        MOCLDY    77  66  68 S6        29.81R
WTRBRY/OXFORD  MOCLDY    75  64  69 SW6       29.83R
BRIDGEPORT     PTCLDY    79  71  76 S17       29.78R
MERIDEN        PTCLDY    79  68  69 S8        29.79R
NEW HAVEN      MOCLDY    77  70  79 S10       29.79R
CHESTER        NOT AVBL
GROTON         PTCLDY    74  71  91 SW9       29.81R
WILLIMANTIC    MOCLDY    78  68  71 S9G16     29.80R

 IN RI

CITY           SKY/WX    TMP DP  RH WIND       PRES   REMARKS
PROVIDENCE     PTCLDY    76  69  79 SW13      29.82R
BLOCK ISLAND     N/A     75  72  88 SW13      29.83S
WESTERLY       CLEAR     76  70  82 SW10      29.83R

 IN MA

CITY           SKY/WX    TMP DP  RH WIND       PRES   REMARKS
BOSTON         MOCLDY    77  63  61 S13       29.79R
WORCESTER      MOCLDY    74  64  71 S14G22    29.83R
WESTFIELD      PTCLDY    78  65  63 S8        29.77R
PROVINCETOWN   CLEAR     73  63  68 SW14G20   29.82S
NANTUCKET      CLEAR     74  71  91 S14       29.85R
$$

ANZ330-335-338-340-345-350-353-355-040200-
COASTAL MARINE OBSERVATIONS


STATION/POSITION TIME  SKY/WX   TEMP    WIND        PRES    VSBY  WAVE
                                AIR SEA DIR/SP/G                  HT/PER
                 (UTC)          (F)     (DEG/KT/KT) (MB)    (MI)  (FT/S)
NY HARB ENTRANCE 2350            78 77  200/ 19/ 25 1008.3          5/ 5
4S FIRE IS       NOT AVBL
20S FIRE ISLAND  2350            78 77  210/ 17/ 21 1009.1          5/ 5
GREAT SOUTH BAY  0000            78 81  240/ 16/ 21   N/A
23SW MTP         0050            77 74  220/ 16/ 19 1009.4          5/ 5
HUDSON CANYON    NOT AVBL
KINGS POINT      0000            79 74  190/ 11/ 13 1007.6
EXECUTION ROCKS  0000            80     180/  8/ 10   N/A
CENTRAL LI SOUND NOT AVBL
EASTERN LI SOUND 0000            74 68  210/ 14/ 17   N/A
ROBBINS REEF     0000            86     220/ 11/ 14 1007.3
$$


>>>>>>>>>>>>>>>>>>>>>>>>>>>> KEY <<<<<<<<<<<<<<<<<<<<<<<<<<<
>                                                          <
>     SKY/WX - SKY CONDITION/PRESENT WEATHER               <
>     TMP    - TEMPERATURE IN FAHRENHEIT                   <
>     DP     - DEWPOINT IN FAHRENHEIT                      <
>     RH     - RELATIVE HUMIDITY IN PERCENT                <
>     WIND   - DIRECTION AND SPEED IN MPH                  <
>     PRES   - MEAN SEA LEVEL PRESSURE IN INCHES OF HG     <
>     WCI    - WIND CHILL INDEX                            <
>     VSB    - VISIBILITY IN MILES                         <
>     HX     - HEAT INDEX                                  <
>     TC     - TEMPERATURE IN CELSIUS                      <
>     VRB    - VARIABLE WIND DIRECTION                     <
>                                                          <
>>>>>>>>>>>>>>>>>>>>>>>>>>>> KEY <<<<<<<<<<<<<<<<<<<<<<<<<<<





USA.gov is the U.S. government's official web portal to all federal, state and local government web resources and services.